DateTimeUTC,F1_A11,F1_S11,BsB_S11,BsG_S11,BsR_S11,BbsB_S11,BbsG_S11,BbsR_S11,BaB_A11,BaG_A11,BaR_A11,Tu_S11,T_S11,Uu_S11,U_S11,P_S11,T1_A11
2021-09-21T15:00:00Z,00000200,21000000,,,,,,,-000.44,-000.39,-000.11,18.2,25.1,00.9,00.6,0651.4,31.0
2021-09-21T15:01:00Z,00000200,21000000,,,,,,,0000.42,0000.47,-000.30,18.2,25.1,00.9,00.6,0651.4,31.0
2021-09-21T15:02:00Z,00000200,21000000,,,,,,,-000.41,-000.09,-000.02,18.1,25.1,00.9,00.6,0651.4,31.0
2021-09-21T15:03:00Z,00000200,61000000,,,,,,,0000.74,0000.07,0000.29,18.1,25.1,00.9,00.6,0651.4,31.0
2021-09-21T15:04:00Z,00000200,41000000,0002.17,0001.21,0000.44,0000.89,0000.02,0000.32,0000.85,0000.48,0001.22,18.2,24.9,01.3,00.8,0652.3,31.0
2021-09-21T15:05:00Z,00000200,01010000,0002.89,0001.50,0000.79,0000.38,0000.19,-000.15,0000.21,0000.81,0000.11,18.3,24.8,01.3,00.9,0652.4,31.0
2021-09-21T15:06:00Z,00000200,01000000,0002.39,0001.42,0000.96,0000.85,0000.18,0000.01,0000.77,0000.19,0000.38,18.3,24.8,01.4,00.9,0652.4,31.0
2021-09-21T15:07:00Z,00000200,01000000,0002.60,0001.52,0001.08,0000.98,0000.22,-000.17,0000.31,0000.62,0000.31,18.4,24.9,01.3,00.9,0652.4,31.0
2021-09-21T15:08:00Z,00000200,01000000,0002.81,0001.44,0000.83,0000.73,-000.01,0000.28,0000.12,0000.18,0000.32,18.5,24.9,01.3,00.9,0652.4,31.0
2021-09-21T15:09:00Z,00000200,01000000,0001.73,0001.50,0000.95,0000.57,0000.28,0000.21,0000.89,0000.49,0000.46,18.5,24.9,01.4,01.0,0652.4,31.0
2021-09-21T15:10:00Z,00000200,01000000,0002.27,0001.39,0000.87,0000.60,-000.20,0000.37,-000.12,0000.30,0000.16,18.5,24.9,01.4,01.0,0652.3,31.0
2021-09-21T15:11:00Z,00000200,01000000,0002.09,0001.37,0001.03,0001.02,0000.17,0000.43,0000.08,0000.22,-000.16,18.5,24.9,01.3,00.9,0652.3,31.0
2021-09-21T15:12:00Z,00000200,01000000,0002.29,0001.43,0000.73,0000.84,-000.04,0000.30,0000.15,0000.37,0000.33,18.5,24.9,01.4,00.9,0652.3,31.0
2021-09-21T15:13:00Z,00000200,01000000,0002.29,0001.21,0000.85,0000.53,-000.17,0000.01,0000.65,0000.08,0000.23,18.4,24.9,01.4,00.9,0652.4,31.0
2021-09-21T15:14:00Z,00000200,01000000,0002.98,0001.38,0000.61,0000.42,-000.21,-000.00,0000.23,0000.41,0000.43,18.4,24.8,01.3,00.9,0652.3,31.0
2021-09-21T15:15:00Z,00000200,01000000,0002.57,0001.20,0000.69,0000.36,-000.11,0000.01,0000.64,0000.62,0000.62,18.4,24.8,01.4,00.9,0652.3,31.0
2021-09-21T15:16:00Z,00000200,01000000,0002.25,0001.34,0000.82,0000.64,0000.17,0000.32,0000.14,0000.04,-000.04,18.4,24.8,01.4,01.0,0652.4,31.0
2021-09-21T15:17:00Z,00000200,01000000,0001.82,0001.28,0000.72,0001.17,0000.25,-000.03,0000.55,0000.66,0000.82,18.3,24.8,01.4,00.9,0652.4,31.0
2021-09-21T15:18:00Z,00000200,01000000,0001.88,0001.41,0000.55,0000.73,0000.12,0000.00,0000.52,-000.08,-000.18,18.3,24.8,01.4,01.0,0652.3,30.9
2021-09-21T15:19:00Z,00000200,01000000,0002.73,0001.31,0000.40,0000.07,0000.09,0000.18,0000.21,0000.80,0000.56,18.3,24.7,01.5,01.0,0652.4,31.0
2021-09-21T15:20:00Z,00000200,01000000,0002.34,0001.43,0001.03,0000.74,0000.17,-000.03,0000.24,0000.18,0000.02,18.3,24.7,01.5,01.0,0652.4,31.0
2021-09-21T15:21:00Z,00000200,01000000,0002.05,0001.10,0000.96,0001.00,0000.16,0000.24,0000.66,0000.27,0000.47,18.4,24.8,01.5,01.0,0652.5,31.0
2021-09-21T15:22:00Z,00000200,01000000,0002.15,0001.28,0001.00,0000.91,0000.21,0000.09,0000.27,0000.67,0000.42,18.5,24.8,01.5,01.0,0652.5,31.0
2021-09-21T15:23:00Z,00000200,01000000,0002.56,0001.17,0000.84,0000.55,-000.17,-000.17,0000.24,0000.30,0000.12,18.6,24.8,01.5,01.0,0652.5,31.0
2021-09-21T15:24:00Z,00000200,01000000,0003.03,0001.33,0000.68,0000.60,-000.00,0000.07,0000.57,0000.07,0000.59,18.6,24.9,01.4,01.0,0652.5,31.0
2021-09-21T15:25:00Z,00000200,01000000,0002.84,0001.41,0000.52,0000.85,0000.21,-000.21,0000.11,0000.26,0000.09,18.7,24.9,01.5,01.0,0652.5,31.0
2021-09-21T15:26:00Z,00000200,01000000,0002.43,0001.23,0000.78,0000.72,0000.27,0000.13,0000.30,0000.36,-000.19,18.7,24.9,01.5,01.0,0652.5,31.0
2021-09-21T15:27:00Z,00000200,01000000,0002.48,0001.23,0000.58,0001.01,0000.12,0000.17,0000.09,0000.06,0000.57,18.6,24.9,01.4,01.0,0652.5,31.0
2021-09-21T15:28:00Z,00000200,01000000,0002.38,0001.31,0000.55,0001.03,-000.05,-000.16,0000.19,0000.30,0000.13,18.6,24.9,01.4,01.0,0652.5,31.0
2021-09-21T15:29:00Z,00000200,01000000,0002.02,0001.53,0000.87,0000.94,-000.09,0000.29,0000.35,0000.03,-000.00,18.6,24.9,01.4,01.0,0652.5,31.0
2021-09-21T15:30:00Z,00000200,01000000,0002.00,0001.18,0000.90,0001.20,0000.24,-000.04,0000.26,0000.53,0000.42,18.5,24.9,01.4,01.0,0652.6,31.0
2021-09-21T15:31:00Z,00000200,01000000,0002.63,0001.31,0000.79,0000.89,0000.01,-000.09,0000.26,0000.39,0000.24,18.5,24.9,01.4,01.0,0652.6,31.0
2021-09-21T15:32:00Z,00000200,01000000,0003.09,0000.97,0000.80,0000.88,-000.02,0000.35,0000.26,-000.12,0000.01,18.4,24.8,01.4,00.9,0652.5,31.0
2021-09-21T15:33:00Z,00000200,01000000,0002.06,0001.37,0000.77,0000.38,0000.24,0000.15,0000.44,0000.77,0000.68,18.4,24.8,01.4,00.9,0652.5,31.0
2021-09-21T15:34:00Z,00000200,01000000,0002.68,0001.40,0000.76,0000.29,-000.09,0000.22,0000.59,-000.16,0000.35,18.4,24.8,01.3,00.9,0652.6,31.0
2021-09-21T15:35:00Z,00000200,01000000,0003.04,0001.68,0000.69,0000.39,-000.11,0000.09,0000.21,0000.89,0000.08,18.4,24.8,01.4,00.9,0652.6,31.0
2021-09-21T15:36:00Z,00000200,01000000,0002.11,0001.32,0000.36,0001.16,-000.21,-000.13,0000.33,0000.03,0000.39,18.5,24.8,01.3,00.9,0652.6,31.0
2021-09-21T15:37:00Z,00000200,01000000,0002.27,0001.32,0000.85,0000.17,0000.26,0000.14,0000.52,0000.49,0000.36,18.6,24.8,01.4,00.9,0652.6,31.0
2021-09-21T15:38:00Z,00000200,01000000,0002.63,0001.34,0000.92,0000.91,-000.22,-000.15,0000.38,0000.18,0000.17,18.7,24.9,01.4,00.9,0652.7,31.0
2021-09-21T15:39:00Z,00000200,01000000,0003.15,0001.48,0000.76,0001.53,0000.07,-000.07,0000.02,0000.44,0000.19,18.7,24.9,01.3,00.9,0652.7,31.0
2021-09-21T15:40:00Z,00000200,01000000,0002.19,0001.24,0000.82,0000.50,0000.32,0000.12,0000.66,0000.18,0000.48,18.8,25.0,01.3,00.9,0652.7,31.0
2021-09-21T15:41:00Z,00000200,01000000,0002.45,0001.02,0000.82,0001.50,-000.20,-000.13,-000.34,0000.19,-000.30,18.8,25.0,01.3,00.9,0652.7,31.0
2021-09-21T15:42:00Z,00000200,01000000,0002.53,0001.45,0000.90,0000.70,0000.17,0000.29,0000.41,0000.38,0000.54,18.7,25.0,01.3,00.9,0652.8,31.0
2021-09-21T15:43:00Z,00000200,01000000,0002.44,0001.22,0000.60,0000.89,0000.02,0000.17,0000.46,0000.15,0000.11,18.7,25.0,01.3,00.9,0652.7,31.0
2021-09-21T15:44:00Z,00000200,01000000,0001.19,0001.18,0000.69,0000.73,0000.28,0000.27,0000.11,0000.22,0000.03,18.7,25.0,01.3,00.9,0652.8,31.0
2021-09-21T15:45:00Z,00000200,01000000,0001.21,0001.07,0000.32,0000.92,0000.36,0000.15,0000.11,0000.44,0000.48,18.6,24.9,01.3,00.9,0652.8,31.0
2021-09-21T15:46:00Z,00000200,01000000,0002.18,0001.32,0000.63,0001.06,-000.09,0000.15,0000.60,0000.31,0000.18,18.6,24.9,01.3,00.9,0652.8,31.0
2021-09-21T15:47:00Z,00000200,01000000,0002.07,0001.74,0000.78,0001.10,-000.01,0000.18,0000.34,-000.02,-000.04,18.6,24.9,01.3,00.9,0652.9,31.0
2021-09-21T15:48:00Z,00000200,01000000,0001.36,0001.57,0000.77,0000.62,0000.06,-000.01,0000.33,0000.44,0000.53,18.5,24.9,01.3,00.9,0652.9,31.0
2021-09-21T15:49:00Z,00000200,01000000,0002.26,0001.32,0001.19,0000.91,-000.01,0000.34,0000.17,-000.03,0000.27,18.5,24.8,01.2,00.8,0653.0,31.0
2021-09-21T15:50:00Z,00000200,01000000,0001.89,0001.00,0000.89,0001.14,0000.03,-000.07,0000.52,0000.71,0000.65,18.5,24.8,01.3,00.9,0653.0,31.0
2021-09-21T15:51:00Z,00000200,01000000,0002.76,0001.50,0000.98,0000.36,0000.01,0000.24,0000.57,0000.29,0000.31,18.6,24.9,01.3,00.9,0653.0,31.0
2021-09-21T15:52:00Z,00000200,01000000,0002.82,0001.53,0000.66,0000.67,0000.42,-000.02,0000.01,0000.39,-000.02,18.7,24.9,01.3,00.9,0653.0,31.0
2021-09-21T15:53:00Z,00000200,01000000,0002.19,0001.00,0001.04,0000.86,0000.07,0000.43,0000.12,0000.53,0000.41,18.7,24.9,01.3,00.9,0653.0,31.0
2021-09-21T15:54:00Z,00000200,01000000,0001.13,0001.10,0000.85,0000.28,-000.20,0000.02,0000.43,-000.19,-000.06,18.7,25.0,01.3,00.9,0653.0,31.0
2021-09-21T15:55:00Z,00000200,01000000,0002.45,0001.41,0000.98,0000.80,0000.08,-000.12,0000.17,0000.11,0000.11,18.7,25.0,01.2,00.8,0653.1,31.0
2021-09-21T15:56:00Z,00000200,01000000,0002.51,0001.23,0001.05,0000.63,-000.07,0000.42,0000.33,0000.62,0000.51,18.6,25.0,01.3,00.9,0653.1,31.0
2021-09-21T15:57:00Z,00000200,41000000,,,,,,,0000.38,0000.26,0000.22,18.7,25.0,01.5,01.0,0653.0,31.0
2021-09-21T15:58:00Z,00000200,61000000,,,,,,,-000.58,-000.51,-000.45,18.3,25.0,01.2,00.8,0652.1,31.0
2021-09-21T15:59:00Z,00000200,21000000,,,,,,,0000.12,0000.14,-000.47,18.2,25.1,01.2,00.8,0652.1,31.0
